TimeAKST,TemperatureF,Dew PointF,Humidity,Sea Level PressureIn,VisibilityMPH,Wind Direction,Wind SpeedMPH,Gust SpeedMPH,PrecipitationIn,Events,Conditions,WindDirDegrees,DateUTC
12:53 AM,41.0,37.9,89,29.59,10.0,ESE,21.9,31.1,0.01,Rain,Light Rain,110,2012-11-04 08:53:00
1:53 AM,41.0,37.9,89,29.59,10.0,ESE,23.0,29.9,0.00,Rain,Light Rain,110,2012-11-04 09:53:00
1:53 AM,41.0,39.0,93,29.58,10.0,ESE,21.9,29.9,0.03,Rain,Rain,110,2012-11-04 10:53:00
3:53 AM,42.1,39.0,89,29.55,6.0,ESE,18.4,27.6,0.06,Rain,Light Rain,120,2012-11-04 12:53:00
4:53 AM,41.0,39.0,93,29.52,8.0,East,19.6,-,0.04,Rain,Light Rain,100,2012-11-04 13:53:00
5:53 AM,41.0,39.0,93,29.47,10.0,East,13.8,-,0.01,Rain,Light Rain,90,2012-11-04 14:53:00
6:53 AM,41.0,37.9,89,29.43,10.0,East,13.8,-,0.00,,Overcast,100,2012-11-04 15:53:00
7:53 AM,41.0,37.9,89,29.37,10.0,NE,5.8,-,N/A,,Overcast,50,2012-11-04 16:53:00
8:53 AM,41.0,37.9,89,29.30,10.0,NE,3.5,-,N/A,,Overcast,50,2012-11-04 17:53:00
9:14 AM,39.2,37.4,93,29.27,10.0,West,4.6,-,N/A,,Overcast,260,2012-11-04 18:14:00
9:53 AM,39.9,37.9,93,29.23,10.0,SW,3.5,-,0.00,Rain,Light Rain,220,2012-11-04 18:53:00
10:53 AM,39.9,37.9,93,29.16,10.0,West,4.6,-,0.00,Rain,Light Rain,280,2012-11-04 19:53:00
11:53 AM,39.9,37.9,93,29.10,10.0,West,4.6,-,0.00,Rain,Light Rain,260,2012-11-04 20:53:00
12:53 PM,39.0,37.9,96,29.07,10.0,WSW,3.5,-,0.01,Rain,Light Rain,250,2012-11-04 21:53:00
1:53 PM,39.0,37.9,96,29.06,8.0,West,3.5,-,0.02,Rain,Light Rain,280,2012-11-04 22:53:00
2:53 PM,39.0,37.9,96,29.05,10.0,SSW,3.5,-,0.00,Rain,Light Rain,200,2012-11-04 23:53:00
3:53 PM,39.0,37.9,96,29.06,8.0,Calm,Calm,-,0.01,Rain,Light Rain,0,2012-11-05 00:53:00
4:32 PM,37.4,37.4,100,29.05,3.0,SSW,4.6,-,0.00,,Overcast,210,2012-11-05 01:32:00
4:53 PM,37.9,37.0,97,29.05,3.0,Calm,Calm,-,0.00,,Overcast,0,2012-11-05 01:53:00
5:09 PM,37.4,37.4,100,29.05,2.0,Calm,Calm,-,N/A,,Overcast,0,2012-11-05 02:09:00
5:16 PM,37.4,37.4,100,29.05,1.0,Calm,Calm,-,0.00,Rain-Snow,Light Snow,0,2012-11-05 02:16:00
5:53 PM,37.0,37.0,100,29.06,0.5,Calm,Calm,-,0.00,,Overcast,0,2012-11-05 02:53:00
6:53 PM,36.0,36.0,100,29.09,3.0,Calm,Calm,-,0.00,Rain-Snow,Light Rain,0,2012-11-05 03:53:00
7:39 PM,35.6,35.6,100,29.11,5.0,Calm,Calm,-,0.00,Rain,Light Rain,0,2012-11-05 04:39:00
7:53 PM,37.0,36.0,96,29.12,3.0,Calm,Calm,-,0.00,Rain,Light Rain,0,2012-11-05 04:53:00
8:53 PM,36.0,36.0,100,29.17,4.0,Calm,Calm,-,0.00,Rain,Light Rain,0,2012-11-05 05:53:00
9:53 PM,36.0,36.0,100,29.22,4.0,Calm,Calm,-,0.00,Rain-Snow,Light Rain,0,2012-11-05 06:53:00
10:53 PM,37.0,36.0,96,29.28,5.0,Calm,Calm,-,0.03,Rain,Light Rain,0,2012-11-05 07:53:00